Location: Millers Ferry
(32.0990°N, 87.3680°W)
Time: 02:48:02
(UTC-05:00)

CSL-04 Rocket - Visible Passes

Search period start: 01 August 2015 00:00
Search period end: 11 August 2015 00:00
Orbit: 807 x 860 km, 98.9° (Epoch: 31 July)

Date Brightness Start Highest point End Pass type
(mag) Time Alt. Az. Time Alt. Az. Time Alt. Az.
01 Aug 4.2 05:21:13 10° NNE 05:26:37 63° E 05:31:57 10° S visible
02 Aug 4.9 05:04:36 10° NNE 05:09:44 42° E 05:14:49 10° S visible
03 Aug 5.6 04:48:11 10° NE 04:52:47 28° E 04:57:25 10° SSE visible
04 Aug 6.1 04:32:05 10° NE 04:35:46 19° E 04:39:38 10° SE visible
05 Aug 6.4 04:16:39 10° ENE 04:18:42 12° E 04:21:07 10° ESE visible
06 Aug 3.7 05:37:18 10° NNE 05:42:46 89° E 05:48:08 10° SSW visible
07 Aug 4.2 05:20:33 10° NNE 05:25:55 61° E 05:31:12 10° S visible
08 Aug 5.0 05:03:58 10° NNE 05:09:01 40° E 05:14:02 10° SSE visible
09 Aug 5.6 04:47:34 10° NE 04:52:04 27° E 04:56:36 10° SSE visible
10 Aug 6.2 04:31:29 10° NE 04:35:03 18° E 04:38:48 10° SE visible
